Location: Beaver Meadows
(40.3729°N, 105.6140°W)
Time: 23:30:24
(UTC-07:00)

Iridium 67 - Visible Passes

Search period start: 04 March 2015 00:00
Search period end: 14 March 2015 01:00
Orbit: 776 x 779 km, 86.4° (Epoch: 04 March)

Date Brightness Start Highest point End Pass type
(mag) Time Alt. Az. Time Alt. Az. Time Alt. Az.
04 Mar 7.7 03:17:25 20° NNE 03:17:25 20° NNE 03:19:01 10° NNE visible
04 Mar 7.6 04:57:54 12° NW 04:57:54 12° NW 04:58:31 10° NNW visible
05 Mar 8.2 02:44:09 14° NNE 02:44:09 14° NNE 02:45:00 10° NNE visible
05 Mar 7.4 04:24:38 16° NNW 04:24:38 16° NNW 04:25:53 10° NNW visible
06 Mar 7.5 03:51:20 18° N 03:51:20 18° N 03:52:43 10° N visible
07 Mar 7.8 03:18:02 17° N 03:18:02 17° N 03:19:14 10° N visible
08 Mar 8.2 03:44:42 14° NNE 03:44:42 14° NNE 03:45:27 10° NNE visible
08 Mar 7.7 05:25:10 11° NNW 05:25:10 11° NNW 05:25:32 10° NNW visible
09 Mar 7.7 04:51:49 14° NNW 04:51:49 14° NNW 04:52:39 10° NNW visible
10 Mar 7.9 04:18:28 15° N 04:18:28 15° N 04:19:21 10° N visible
11 Mar 8.1 03:45:05 14° NNE 03:45:05 14° NNE 03:45:44 10° N visible
12 Mar 8.5 03:11:42 10° NNE 03:11:42 10° NNE 03:11:48 10° NNE visible
12 Mar 7.9 04:52:10 11° NNW 04:52:10 11° NNW 04:52:24 10° NNW visible
13 Mar 7.9 04:18:46 13° N 04:18:46 13° N 04:19:20 10° N visible
